Weather in Kovalam

India     8°23′53″N   76°58′55″E
temp.,
°C
wind,
m/s
gust,
m/s
humid.,
%
clouds,
%
prec.,
mm/h
press.,
hPa
HPBL,
m
17 june, thu
thu1723:30+25wnw31091100 5.4 1011463
02:30+25wnw4108995 3.8 1010494
05:30+25wnw4990100 6.6 1010420
08:30+27wnw488293 2.4 1012846
11:30+28wnw587375 5.5 10121074
14:30+29wnw597299 2.2 10091119
17:30+27nw498360 4.1 1010809
20:30+25nw3991100 0.8 1011432
18 june, fri
fri1823:30+24nnw2894100 1.0 1011336
02:30+24n2796100 0.2 1010291
05:30+23nnw269680 0.3 1010224
08:30+26nnw3783100 0.1 1012630
11:30+30nw4762100 0.2 10111476
14:30+30wnw586063 0.0 10091318
17:30+28nw4774100 0.1 1010797
20:30+25nnw2888100 0.1 1012331
19 june, sat
sat1923:30+25nnw2891100 0.1 1012322
02:30+24nnw2790100 0.1 1011331
05:30+24nnw2691100 0.2 1011250
08:30+27nnw367637 0.1 1013827
11:30+30nw586181 0.3 10131482
14:30+30wnw5861100 0.1 10111387
17:30+28nw4874100 0.2 10111055
20:30+26nnw3985100 0.0 1013583
20 june, sun
sun2023:30+25nnw3988100 0.0 1012443
02:30+24nnw3989100 0.0 1010471
05:30+24nnw3989100 0.0 1010393
08:30+27nnw4877100 0.0 1012794
11:30+30nw5762100 0.1 10121375
14:30+30wnw6963100 0.1 10101283
17:30+27nw597541 0.1 10111001
20:30+26nw498499 0.0 1012682
21 june, mon
mon2123:30+24nnw3989100 0.0 1012501
02:30+24nnw3989100 0.0 1010524
05:30+24nnw3108986 0.0 1010544
08:30+27nw4977100 0.0 1011778
11:30+29nw586597 0.0 10111225
14:30+30nw696273 0.0 10091319
17:30+27nw4107891 0.0 1009781
20:30+26nw4118517 0.0 1011719